[Show "Revision History"] [Show "General Page Infos"] [Show "Page hits and edits"]

Revision History

Showing page edit history entries from 1 to 31 out of 31 entries total.

# Date Size Editor Comment Action
31 2014-03-30 23:25:19 11971 to previous ?JayGates added new path for Wheezy sample configs; not sure how to incorporate release-specific info into the page view
30 2014-03-30 23:10:03 11857 to previous ?JayGates fix grammar: "On the Debian package version"-->"In the Debian package version" view
29 2014-03-30 23:08:45 11857 to previous ?JayGates fix grammar: "we are going create them"-->"we are going to create them" view
28 2013-08-01 22:04:02 11854 to previous ?MagnusAndersson   view
27 2013-08-01 22:00:35 11800 to previous ?MagnusAndersson   view
26 2013-08-01 21:58:07 11775 to previous ?MagnusAndersson   view
25 2013-08-01 21:56:26 11763 to previous ?MagnusAndersson   view
24 2013-08-01 21:54:33 11763 to previous ?MagnusAndersson   view
23 2013-08-01 20:18:24 11522 to previous ?MagnusAndersson   view
22 2013-08-01 20:12:02 11716 to previous ?MagnusAndersson   view
21 2013-08-01 20:10:22 11737 to previous ?MagnusAndersson   view
20 2013-08-01 19:51:19 11529 to previous ?MagnusAndersson   view
19 2013-02-22 02:18:47 11508 to previous GeoffSimmons Spelling corrections, add DefaultTemplate header. view
18 2013-02-21 16:13:27 11422 to previous ?DayoAdewunmi Corrected typo and grammar view
17 2013-02-21 16:04:26 11418 to previous ?DayoAdewunmi Corrected typo view
16 2009-03-16 03:32:17 11417 to previous anonymous converted to 1.6 markup view
15 2006-10-06 05:30:19 11417 to previous JustinSearle   view
14 2006-10-06 05:28:35 11405 to previous JustinSearle   view
13 2006-10-06 05:10:02 10688 to previous JustinSearle   view
12 2006-09-28 02:54:35 10648 to previous JustinSearle   view
11 2006-09-28 02:36:29 10657 to previous JustinSearle   view
10 2006-09-28 02:31:34 10657 to previous JustinSearle   view
9 2006-09-28 02:30:16 10657 to previous JustinSearle   view
8 2006-09-28 02:29:02 10664 to previous JustinSearle   view
7 2006-09-28 01:53:28 9896 to previous JustinSearle   view
6 2006-09-28 01:46:15 10147 to previous JustinSearle   view
5 2006-09-28 01:41:51 10153 to previous JustinSearle   view
4 2006-09-28 01:36:33 10114 to previous JustinSearle   view
3 2006-07-12 04:54:19 10055 to previous JustinSearle   view
2 2006-07-12 04:52:21 9959 to previous JustinSearle   view
1 2006-07-12 04:50:54 9949 JustinSearle   view